OPS 4682 DEB, 38398

Orbit data source: Space-Track

OPS 4682 DEB, 38398 is space debris in LEO originally from a launch on Sat, 03 Apr 1965 UTC launched from the Air Force Western Test Range (AFWTR). Debris objects in space refer to the collection of defunct objects orbiting the Earth. Examples of debris include non-operational satellites, rocket bodies, and fragments generated from explosions, collisions, or faulty payload assembly.

Loading next visibility...
Identifier
38398, 1965-027DB
Orbit
LEO
Country
Flag of USUS
Related business
Manufacturer
Unknown
Mission
Spacecraft
Bus & Motor
Unknown
Mass
Unknown
Launch date (UTC)
1965-04-03 (61 years ago)
Launch vehicle
Unknown
Launch site
Air Force Western Test Range (AFWTR)
Object type
Payload
Rocket body
Debris
Shape & HBR
Unknown shape, 0.1 m
Radar Cross Section
Medium (>0.1 m² and <1 m²)

Expand to show TLE details & history
Last TLE update: 16 hours ago

TLE from 16 hours ago
0 OPS 4682 DEB
1 38398U 65027DB  26235.37925714  .00000351  00000-0  11900-2 0  9999
2 38398  90.2696  19.4769 0016123 292.0394  67.9014 12.97170265671969
Epoch: 2026-08-23T09:06Z
TLE epoch observation values (Epoch: 2026-08-23T09:06:07.816Z)
Latitude
-0.00002°
Longitude
-88.73182°
Altitude
1,271.449 km
Speed
7.222 km/s
True Right ascension
01h 17m 54s
True Declination
0° 00' 00"
Sunlit
Object was in full shadow at epoch
Visualization orbit readout
Latitude
Unknown
Longitude
Unknown
Altitude
Unknown
Speed
Unknown
Apparent Right ascension
Unknown
Apparent Declination
Unknown
Sunlit
N/A
Visualization observer readout
Local Sidereal Time
16:02:59
Azimuth
Unknown
Elevation
Unknown
Doppler factor
Unknown
Orbital elements
Apogee altitude
1,282.657 km
Perigee altitude
1,257.993 km
Semi-major axis
7,648.462 km
Eccentricity
0.00161
Inclination
90.2696°
RAAN
19.4769°
Arg. of periapsis
292.0394°
True anomaly
68.07271°
Mean anomaly
67.9014°
Eccentric anomaly
67.98704°
Mean motion
3.24476 °/min
Orbital period
110.95 mins
BSTAR
0.00119
Loading maneuver chart data...
Computing Atmospheric mass density...
Loading historical data...
Loading historical data...
Loading historical data...
Loading historical data...
Loading historical data...
Loading historical data...
Loading historical data...

Documentation

Showing up to 5 results
|